| time (UTC) | temp C | wind direction | speed KPH | gust KPH | rain 1hr cm | rain 24hr cm | rain mn cm | humidity % | barometer mb |
| 20260506061534 | 8 | 311 | 3.2 | 12.9 | 0.00 | 0.20 | 0.00 | 63 | 1008.7 |
| 20260506044535 | 8 | 271 | 3.2 | 4.8 | 0.00 | 0.46 | 0.00 | 62 | 1008.8 |
| 20260506043034 | 8 | 251 | 1.6 | 6.4 | 0.00 | 0.46 | 0.00 | 61 | 1008.5 |
| 20260506041537 | 8 | 255 | 0.0 | 4.8 | 0.00 | 0.46 | 0.00 | 62 | 1008.5 |
| 20260506040038 | 8 | 241 | 1.6 | 8.0 | 0.00 | 0.46 | 0.00 | 64 | 1008.5 |
| 20260506034535 | 8 | 264 | 0.0 | 1.6 | 0.00 | 0.46 | 0.46 | 63 | 1008.6 |
| 20260506033036 | 8 | 0 | 0.0 | 4.8 | 0.00 | 0.46 | 0.46 | 60 | 1008.5 |
| 20260506031533 | 8 | 248 | 1.6 | 3.2 | 0.00 | 0.46 | 0.46 | 59 | 1008.7 |
| 20260506030039 | 9 | 249 | 1.6 | 8.0 | 0.00 | 0.46 | 0.46 | 58 | 1008.8 |
| 20260506024546 | 9 | 236 | 0.0 | 3.2 | 0.00 | 0.46 | 0.46 | 57 | 1008.6 |
| 20260506023036 | 9 | 243 | 0.0 | 6.4 | 0.00 | 0.46 | 0.46 | 57 | 1008.8 |
| 20260506021533 | 9 | 264 | 1.6 | 4.8 | 0.00 | 0.46 | 0.46 | 57 | 1008.6 |
| 20260506020034 | 9 | 0 | 0.0 | 4.8 | 0.00 | 0.46 | 0.46 | 56 | 1008.6 |
| 20260506014543 | 9 | 235 | 1.6 | 6.4 | 0.00 | 0.46 | 0.46 | 54 | 1008.5 |
| 20260506013037 | 10 | 276 | 3.2 | 9.7 | 0.00 | 0.46 | 0.46 | 53 | 1008.2 |
| 20260506011540 | 10 | 305 | 3.2 | 6.4 | 0.00 | 0.46 | 0.46 | 53 | 1007.9 |
| 20260506010036 | 10 | 253 | 3.2 | 11.3 | 0.00 | 0.46 | 0.46 | 52 | 1007.9 |
| 20260506004533 | 10 | 245 | 3.2 | 16.1 | 0.00 | 0.46 | 0.46 | 52 | 1008.1 |
| 20260506003037 | 10 | 325 | 4.8 | 19.3 | 0.00 | 0.46 | 0.46 | 52 | 1008.0 |
| 20260506001538 | 10 | 273 | 4.8 | 11.3 | 0.00 | 0.46 | 0.46 | 52 | 1008.0 |
| 20260506000037 | 11 | 268 | 4.8 | 14.5 | 0.00 | 0.46 | 0.46 | 51 | 1007.8 |
| 20260505234541 | 11 | 255 | 4.8 | 12.9 | 0.00 | 0.51 | 0.46 | 52 | 1007.6 |
| 20260505233038 | 11 | 283 | 4.8 | 12.9 | 0.00 | 0.51 | 0.46 | 53 | 1007.3 |
| 20260505231549 | 11 | 274 | 4.8 | 11.3 | 0.00 | 0.51 | 0.46 | 54 | 1007.2 |
| 20260505230048 | 11 | 267 | 4.8 | 14.5 | 0.00 | 0.51 | 0.46 | 54 | 1007.3 |
| 20260505224541 | 11 | 285 | 4.8 | 12.9 | 0.00 | 0.51 | 0.46 | 55 | 1007.4 |
| 20260505223040 | 11 | 264 | 4.8 | 19.3 | 0.00 | 0.51 | 0.46 | 55 | 1007.4 |
| 20260505221540 | 11 | 290 | 6.4 | 14.5 | 0.00 | 0.51 | 0.46 | 55 | 1007.5 |
| 20260505220036 | 11 | 224 | 4.8 | 16.1 | 0.00 | 0.51 | 0.46 | 56 | 1007.4 |
| 20260505214534 | 11 | 309 | 9.7 | 20.9 | 0.00 | 0.51 | 0.46 | 53 | 1007.4 |
| 20260505213032 | 11 | 302 | 8.0 | 14.5 | 0.00 | 0.51 | 0.46 | 60 | 1007.5 |
| 20260505211534 | 11 | 278 | 6.4 | 19.3 | 0.00 | 0.51 | 0.46 | 63 | 1007.3 |
| 20260505210038 | 11 | 280 | 4.8 | 9.7 | 0.00 | 0.51 | 0.46 | 71 | 1007.5 |
| 20260505204540 | 11 | 246 | 3.2 | 12.9 | 0.00 | 0.51 | 0.46 | 74 | 1007.5 |
| 20260505203035 | 11 | 248 | 3.2 | 12.9 | 0.00 | 0.51 | 0.46 | 75 | 1007.7 |
| 20260505201534 | 11 | 285 | 1.6 | 17.7 | 0.00 | 0.51 | 0.46 | 77 | 1007.5 |
| 20260505200035 | 11 | 279 | 3.2 | 11.3 | 0.00 | 0.51 | 0.46 | 77 | 1007.5 |
| 20260505194532 | 11 | 224 | 3.2 | 14.5 | 0.00 | 0.51 | 0.46 | 77 | 1007.5 |
| 20260505193032 | 10 | 274 | 3.2 | 11.3 | 0.00 | 0.51 | 0.46 | 78 | 1007.7 |
| 20260505191534 | 10 | 257 | 4.8 | 17.7 | 0.00 | 0.51 | 0.46 | 78 | 1008.0 |
| 20260505190036 | 10 | 243 | 6.4 | 12.9 | 0.00 | 0.51 | 0.46 | 79 | 1007.9 |
| 20260505184535 | 10 | 283 | 4.8 | 16.1 | 0.00 | 0.51 | 0.46 | 80 | 1007.7 |
| 20260505183036 | 10 | 307 | 6.4 | 19.3 | 0.00 | 0.51 | 0.46 | 81 | 1007.8 |
| 20260505181531 | 10 | 262 | 3.2 | 14.5 | 0.00 | 0.51 | 0.46 | 83 | 1007.5 |
| 20260505180045 | 9 | 254 | 6.4 | 14.5 | 0.03 | 0.51 | 0.46 | 83 | 1007.5 |
| 20260505174544 | 9 | 298 | 6.4 | 12.9 | 0.03 | 0.51 | 0.46 | 86 | 1007.5 |
| 20260505173032 | 8 | 218 | 4.8 | 12.9 | 0.05 | 0.51 | 0.46 | 87 | 1007.3 |
| 20260505171533 | 8 | 272 | 1.6 | 16.1 | 0.10 | 0.51 | 0.46 | 87 | 1006.9 |
| 20260505170032 | 9 | 274 | 1.6 | 8.0 | 0.15 | 0.48 | 0.43 | 87 | 1007.0 |
| 20260505164535 | 8 | 248 | 3.2 | 11.3 | 0.18 | 0.48 | 0.43 | 87 | 1007.2 |
| 20260505163035 | 8 | 241 | 4.8 | 17.7 | 0.15 | 0.46 | 0.41 | 85 | 1007.4 |
| 20260505161534 | 9 | 232 | 4.8 | 12.9 | 0.10 | 0.41 | 0.36 | 83 | 1007.6 |
| 20260505153033 | 11 | 300 | 8.0 | 25.7 | 0.00 | 0.30 | 0.25 | 69 | 1007.1 |
| 20260505151536 | 12 | 300 | 6.4 | 16.1 | 0.00 | 0.30 | 0.25 | 66 | 1006.8 |
| 20260505124539 | 13 | 238 | 4.8 | 14.5 | 0.00 | 0.30 | 0.25 | 72 | 1003.7 |
| 20260505123037 | 13 | 269 | 8.0 | 16.1 | 0.00 | 0.30 | 0.25 | 74 | 1003.7 |
| 20260505121535 | 13 | 274 | 6.4 | 14.5 | 0.00 | 0.30 | 0.25 | 79 | 1003.7 |
| 20260505120041 | 12 | 277 | 4.8 | 12.9 | 0.00 | 0.30 | 0.25 | 83 | 1003.9 |
| 20260505114535 | 12 | 288 | 3.2 | 17.7 | 0.00 | 0.30 | 0.25 | 87 | 1003.7 |
| 20260505113034 | 12 | 314 | 4.8 | 22.5 | 0.00 | 0.30 | 0.25 | 88 | 1003.1 |
| 20260505111532 | 12 | 283 | 6.4 | 16.1 | 0.00 | 0.30 | 0.25 | 88 | 1003.0 |
| 20260505101554 | 12 | 276 | 3.2 | 14.5 | 0.00 | 0.30 | 0.25 | 87 | 1002.0 |
| 20260505100054 | 12 | 241 | 4.8 | 11.3 | 0.00 | 0.30 | 0.25 | 87 | 1002.1 |
| 20260505094534 | 12 | 224 | 3.2 | 14.5 | 0.00 | 0.30 | 0.25 | 86 | 1001.9 |
| 20260505093031 | 12 | 244 | 4.8 | 14.5 | 0.00 | 0.30 | 0.25 | 86 | 1001.6 |
| 20260505091534 | 13 | 233 | 3.2 | 12.9 | 0.00 | 0.30 | 0.25 | 87 | 1001.7 |
| 20260505090034 | 13 | 225 | 9.7 | 20.9 | 0.00 | 0.30 | 0.25 | 87 | 1001.6 |
| 20260505084535 | 13 | 238 | 6.4 | 17.7 | 0.00 | 0.30 | 0.25 | 87 | 1001.3 |
| 20260505083035 | 12 | 283 | 6.4 | 16.1 | 0.00 | 0.30 | 0.25 | 89 | 1001.3 |
| 20260505081532 | 12 | 268 | 4.8 | 14.5 | 0.00 | 0.30 | 0.25 | 90 | 1001.1 |
| 20260505080035 | 12 | 219 | 1.6 | 6.4 | 0.00 | 0.30 | 0.25 | 90 | 1000.8 |
| 20260505074536 | 12 | 267 | 1.6 | 6.4 | 0.00 | 0.30 | 0.25 | 90 | 1000.8 |
| 20260505073038 | 12 | 129 | 0.0 | 8.0 | 0.00 | 0.30 | 0.25 | 90 | 1000.5 |
| 20260505071533 | 12 | 271 | 1.6 | 4.8 | 0.00 | 0.30 | 0.25 | 89 | 1000.4 |
| 20260505070032 | 13 | 263 | 0.0 | 4.8 | 0.00 | 0.30 | 0.25 | 88 | 999.9 |
| 20260505064531 | 13 | 246 | 0.0 | 4.8 | 0.00 | 0.30 | 0.25 | 88 | 1000.0 |